Voltar ao catálogo

STARLINK-35452

AtivoComunicaçõesVLEO
NORAD 66104·PAYLOAD·🇺🇸 United States

Lançado Oct 19, 2025 de Vandenberg Space Force Base

Loading…

Próximas Passagens (próximas 24 horas)

TLE

AtualizadoSource: CelesTrak SupGP

Época: Sep 14, 2026, 21:27 UTC

1 66104C 25236U   26257.89423611  .00014936  00000+0  44140-3 0  2576
2 66104  53.1592 301.6849 0001222  87.1550 138.7447 15.34376247    15

Acompanhe STARLINK-35452 em tempo real com AllMySat

Download on the App Store